Location: Asarope
(8.2500°N, 4.4833°E)
Time: 19:27:26
(UTC+00:00)

Hubble Space Telescope - Pass Details

Date: 03 August 2021
Orbit: 535 x 539 km, 28.5° (Epoch: 20 September)

Event Time Altitude Azimuth Distance (km) Brightness Sun altitude
Rises 20:34:20 0° 306° (NW) 2,664 5.3 -35.7°
Reaches altitude 10° 20:36:39 10° 312° (NW) 1,774 4.1 -36.2°
Enters shadow 20:36:50 11° 313° (NW) 1,707 4.0 -36.3°
